NIMBUS 2 DEB, 38183

Orbit data source: Space-Track

NIMBUS 2 DEB, 38183 is space debris in SSO originally from a launch on Sun, 15 May 1966 UTC launched from the Air Force Western Test Range (AFWTR). Debris objects in space refer to the collection of defunct objects orbiting the Earth. Examples of debris include non-operational satellites, rocket bodies, and fragments generated from explosions, collisions, or faulty payload assembly.

Loading next visibility...
Identifier
38183, 1966-040BB
Orbit
SSO
Country
Flag of USUS
Related business
Manufacturer
Unknown
Mission
Spacecraft
Bus & Motor
Unknown
Mass
Unknown
Launch date (UTC)
1966-05-15 (60 years ago)
Launch vehicle
Unknown
Launch site
Air Force Western Test Range (AFWTR)
Object type
Payload
Rocket body
Debris
Shape & HBR
Unknown shape, 0.1 m
Radar Cross Section
Medium (>0.1 m² and <1 m²)

Expand to show TLE details & history
Last TLE update: 3 days ago

TLE from 3 days ago
0 NIMBUS 2 DEB
1 38183U 66040BB  26170.59067497  .00001218  00000-0  20893-2 0  9998
2 38183 100.4653  99.5432 0046451 191.2772 348.1590 13.46518788709349
Epoch: 2026-06-19T14:10Z
TLE epoch observation values (Epoch: 2026-06-19T14:10:34.317Z)
Latitude
0.55436°
Longitude
159.18462°
Altitude
1,053.849 km
Speed
7.342 km/s
True Right ascension
18h 38m 34s
True Declination
0° 33' 04"
Sunlit
Object was in full shadow at epoch
Visualization orbit readout
Latitude
Unknown
Longitude
Unknown
Altitude
Unknown
Speed
Unknown
Apparent Right ascension
Unknown
Apparent Declination
Unknown
Sunlit
N/A
Visualization observer readout
Local Sidereal Time
02:13:21
Azimuth
Unknown
Elevation
Unknown
Doppler factor
Unknown
Orbital elements
Apogee altitude
1,117.096 km
Perigee altitude
1,047.786 km
Semi-major axis
7,460.578 km
Eccentricity
0.00465
Inclination
100.4653°
RAAN
99.5432°
Arg. of periapsis
191.2772°
True anomaly
348.04915°
Mean anomaly
348.159°
Eccentric anomaly
348.10414°
Mean motion
3.3681 °/min
Orbital period
106.89 mins
BSTAR
0.0020893
Loading maneuver chart data...
Computing Atmospheric mass density...
Loading historical data...
Loading historical data...
Loading historical data...
Loading historical data...
Loading historical data...
Loading historical data...
Loading historical data...

Documentation

Showing up to 5 results
|